Tracking 21679 objects as of 30-Oct-2020
HD Live streaming from Space Station
objects crossing your sky now

GORIZONT 32

Track GORIZONT 32 now!
GORIZONT 32 is classified as:


NORAD ID: 23880
Int'l Code: 1996-034A
Perigee: 35,781.4 km
Apogee: 35,876.9 km
Inclination: 14.4 °
Period: 1,437.9 minutes
Semi major axis: 42200 km
RCS: 17.7827 m2 (large)
Launch date: May 25, 1996
Source: Commonwealth of Independent States (former USSR) (CIS)
Launch site: TYURATAM MISSILE AND SPACE COMPLEX (TTMTR)

Telecommunications; augment television channels available to the people of Siberia.
aabbcc
Your satellite tracking list
Your tracking list is empty




NASA's NSSDC Master Catalog

Two Line Element Set (TLE):
1 23880U 96034A   20303.63104889 -.00000277  00000-0  00000+0 0  9996
2 23880  14.4377  10.9936 0011315 333.2659  18.4801  1.00145491 89430
Source of the keplerian elements: AFSPC